LAGEOS 1

Last updated on July 6, 2021, 3:43 p.m. UTC

1 08820U 76039A   21186.53699328 -.00000016  00000-0  00000+0 0  9993
2 08820 109.8532 280.1423 0045212 328.6399  17.8013  6.38665034798108
UTC
Height (km)
Latitude
Longitude
Inclination
Orbital Period
UTC large
Height (km)
Speed (km/s)
/
Latitude / Longitude
Inclination (degrees)
Orbital Period (minutes)
Azimuth
Elevation
Range (km)
Doppler Factor
iOS Compass Heading
iOS Angle